DELTA 1 DEB (YO), 312

Orbit data source: Space-Track

DELTA 1 DEB (YO), 312 is space debris in LEO originally from a launch on Tue, 19 Jun 1962 UTC launched from the Air Force Eastern Test Range (AFETR). Debris objects in space refer to the collection of defunct objects orbiting the Earth. Examples of debris include non-operational satellites, rocket bodies, and fragments generated from explosions, collisions, or faulty payload assembly.

Loading next visibility...
Identifier
312, 1962-025C
Orbit
LEO
Country
Flag of USUS
Related business
Manufacturer
RCA/East Windsor
Mission
Spacecraft
Bus & Motor
Unknown
Mass
~1 kg wet, ~1 kg dry
Launch date (UTC)
1962-06-19 (64 years ago)
Launch vehicle
Unknown
Launch site
Air Force Eastern Test Range (AFETR)
Object type
Payload
Rocket body
Debris
Shape & HBR
Unknown shape, 0.1 m
Radar Cross Section
Small (<0.1 m²)

Expand to show TLE details & history
Last TLE update: 1 day ago

TLE from 1 day ago
0 DELTA 1 DEB (YO)
1 00312U 62025C   26126.42699126  .00000909  00000-0  17558-3 0  9994
2 00312  58.2461 177.9002 0184327 249.2715 108.8477 14.61790695352817
Epoch: 2026-05-06T10:14Z
TLE epoch observation values (Epoch: 2026-05-06T10:14:52.044Z)
Latitude
-0.00003°
Longitude
159.89569°
Altitude
732.99 km
Speed
7.466 km/s
True Right ascension
11h 51m 36s
True Declination
0° 00' 00"
Sunlit
Object was in full shadow at epoch
Visualization orbit readout
Latitude
Unknown
Longitude
Unknown
Altitude
Unknown
Speed
Unknown
Apparent Right ascension
Unknown
Apparent Declination
Unknown
Sunlit
N/A
Visualization observer readout
Local Sidereal Time
19:58:45
Azimuth
Unknown
Elevation
Unknown
Doppler factor
Unknown
Orbital elements
Apogee altitude
817.102 km
Perigee altitude
556.648 km
Semi-major axis
7,065.012 km
Eccentricity
0.01843
Inclination
58.2461°
RAAN
177.9002°
Arg. of periapsis
249.2715°
True anomaly
110.83151°
Mean anomaly
108.8477°
Eccentric anomaly
109.84112°
Mean motion
3.65489 °/min
Orbital period
98.5 mins
BSTAR
0.00017558
Loading maneuver chart data...
Computing Atmospheric mass density...
Loading historical data...
Loading historical data...
Loading historical data...
Loading historical data...
Loading historical data...
Loading historical data...
Loading historical data...
Other satellites on launch #25 in the year 1962 (1962-06-19 UTC)

Documentation

Showing up to 5 results
|